Time,TemperatureF,DewpointF,PressureIn,WindDirection,WindDirectionDegrees,WindSpeedMPH,WindSpeedGustMPH,Humidity,HourlyPrecipIn,Conditions,Clouds,dailyrainin,SoftwareType,DateUTC
2013-02-15 00:00:00,49.1,30.8,30.10,WSW,258,0.0,0.0,49,0.00,,,0.00,VWS V13.01,2013-02-15 06:00:00,
2013-02-15 00:05:00,49.1,30.3,30.10,NW,326,0.0,0.0,48,0.00,,,0.00,VWS V13.01,2013-02-15 06:05:00,
2013-02-15 00:10:00,49.1,30.8,30.10,NW,320,2.7,2.7,49,0.00,,,0.00,VWS V13.01,2013-02-15 06:10:00,
2013-02-15 00:15:00,49.1,30.3,30.10,North,1,6.3,8.1,48,0.00,,,0.00,VWS V13.01,2013-02-15 06:15:00,
2013-02-15 00:20:00,49.3,30.4,30.10,NW,319,3.1,3.1,48,0.00,,,0.00,VWS V13.01,2013-02-15 06:20:00,
2013-02-15 00:25:00,49.1,30.3,30.10,SW,223,6.3,6.3,48,0.00,,,0.00,VWS V13.01,2013-02-15 06:25:00,
2013-02-15 00:30:00,48.9,30.1,30.10,NW,315,4.0,5.8,48,0.00,,,0.00,VWS V13.01,2013-02-15 06:30:00,
2013-02-15 00:35:00,48.9,29.6,30.10,NW,325,4.0,4.0,47,0.00,,,0.00,VWS V13.01,2013-02-15 06:35:00,
2013-02-15 00:40:00,48.9,29.6,30.10,NW,307,8.1,8.1,47,0.00,,,0.00,VWS V13.01,2013-02-15 06:40:00,
2013-02-15 00:45:00,48.9,29.6,30.10,NNW,338,3.1,3.1,47,0.00,,,0.00,VWS V13.01,2013-02-15 06:45:00,
2013-02-15 00:50:00,48.7,29.4,30.10,NW,322,4.9,5.8,47,0.00,,,0.00,VWS V13.01,2013-02-15 06:50:00,
2013-02-15 00:55:00,48.5,29.8,30.10,WNW,299,3.1,3.6,48,0.00,,,0.00,VWS V13.01,2013-02-15 06:55:00,
2013-02-15 01:00:00,48.4,29.6,30.13,WNW,300,3.1,3.1,48,0.00,,,0.00,VWS V13.01,2013-02-15 07:00:00,
2013-02-15 01:05:00,48.4,29.6,30.13,NW,313,7.6,7.6,48,0.00,,,0.00,VWS V13.01,2013-02-15 07:05:00,
2013-02-15 01:10:00,48.5,29.8,30.13,West,270,4.9,4.9,48,0.00,,,0.00,VWS V13.01,2013-02-15 07:10:00,
2013-02-15 01:15:00,48.5,29.8,30.13,WNW,300,3.1,5.4,48,0.00,,,0.00,VWS V13.01,2013-02-15 07:15:00,
2013-02-15 01:20:00,48.4,29.6,30.13,WSW,248,2.7,3.1,48,0.00,,,0.00,VWS V13.01,2013-02-15 07:20:00,
2013-02-15 01:25:00,48.2,29.9,30.13,SW,231,0.0,2.7,49,0.00,,,0.00,VWS V13.01,2013-02-15 07:25:00,
2013-02-15 01:30:00,47.8,29.6,30.13,WNW,285,2.7,2.7,49,0.00,,,0.00,VWS V13.01,2013-02-15 07:30:00,
2013-02-15 01:35:00,47.8,29.6,30.13,WSW,257,5.8,8.3,49,0.00,,,0.00,VWS V13.01,2013-02-15 07:35:00,
2013-02-15 01:40:00,48.0,29.8,30.13,West,272,6.3,7.2,49,0.00,,,0.00,VWS V13.01,2013-02-15 07:40:00,
2013-02-15 01:45:00,48.0,29.8,30.13,NW,317,6.3,7.6,49,0.00,,,0.00,VWS V13.01,2013-02-15 07:45:00,
2013-02-15 01:50:00,48.0,29.8,30.13,WSW,253,7.2,7.6,49,0.00,,,0.00,VWS V13.01,2013-02-15 07:50:00,
2013-02-15 01:55:00,48.0,29.8,30.13,WNW,289,7.6,7.6,49,0.00,,,0.00,VWS V13.01,2013-02-15 07:55:00,
2013-02-15 02:00:00,47.8,29.6,30.16,NW,310,6.3,6.3,49,0.00,,,0.00,VWS V13.01,2013-02-15 08:00:00,
2013-02-15 02:05:00,47.5,30.2,30.16,West,268,7.6,7.6,51,0.00,,,0.00,VWS V13.01,2013-02-15 08:05:00,
2013-02-15 02:10:00,46.7,31.4,30.16,NW,307,7.6,8.3,55,0.00,,,0.00,VWS V13.01,2013-02-15 08:10:00,
2013-02-15 02:15:00,45.5,32.0,30.16,NW,313,7.6,8.3,59,0.00,,,0.00,VWS V13.01,2013-02-15 08:15:00,
2013-02-15 02:20:00,45.1,31.2,30.16,NW,322,8.1,10.5,58,0.00,,,0.00,VWS V13.01,2013-02-15 08:20:00,
2013-02-15 02:25:00,44.9,31.5,30.16,North,6,4.5,5.8,59,0.00,,,0.00,VWS V13.01,2013-02-15 08:25:00,
2013-02-15 02:29:00,44.8,31.3,30.16,WNW,284,2.7,4.9,59,0.00,,,0.00,VWS V13.01,2013-02-15 08:29:00,
2013-02-15 02:34:00,44.8,31.3,30.16,SW,234,2.7,3.1,59,0.00,,,0.00,VWS V13.01,2013-02-15 08:34:00,
2013-02-15 02:39:00,44.6,31.6,30.16,WSW,242,3.1,3.6,60,0.00,,,0.00,VWS V13.01,2013-02-15 08:39:00,
2013-02-15 02:44:00,44.6,31.1,30.16,SW,224,2.7,3.1,59,0.00,,,0.00,VWS V13.01,2013-02-15 08:44:00,
2013-02-15 02:49:00,44.4,31.4,30.16,SW,218,3.6,3.6,60,0.00,,,0.00,VWS V13.01,2013-02-15 08:49:00,
2013-02-15 02:54:00,44.2,31.6,30.16,SW,220,3.6,4.0,61,0.00,,,0.00,VWS V13.01,2013-02-15 08:54:00,
2013-02-15 02:59:00,44.2,31.2,30.16,South,184,4.9,4.9,60,0.00,,,0.00,VWS V13.01,2013-02-15 08:59:00,
2013-02-15 03:04:00,44.4,31.0,30.16,SSW,205,3.6,5.4,59,0.00,,,0.00,VWS V13.01,2013-02-15 09:04:00,
2013-02-15 03:09:00,44.6,31.1,30.16,SSW,199,2.2,3.1,59,0.00,,,0.00,VWS V13.01,2013-02-15 09:09:00,
2013-02-15 03:14:00,44.4,31.4,30.16,WSW,248,2.2,2.2,60,0.00,,,0.00,VWS V13.01,2013-02-15 09:14:00,
2013-02-15 03:19:00,44.2,31.2,30.16,WSW,256,3.1,5.8,60,0.00,,,0.00,VWS V13.01,2013-02-15 09:19:00,
2013-02-15 03:24:00,44.2,31.6,30.16,WSW,246,3.1,4.0,61,0.00,,,0.00,VWS V13.01,2013-02-15 09:24:00,
2013-02-15 03:29:00,43.9,31.7,30.16,WSW,249,3.1,3.1,62,0.00,,,0.00,VWS V13.01,2013-02-15 09:29:00,
2013-02-15 03:34:00,43.7,31.5,30.16,West,260,4.0,4.0,62,0.00,,,0.00,VWS V13.01,2013-02-15 09:34:00,
2013-02-15 03:39:00,43.5,31.4,30.16,WSW,243,3.6,3.6,62,0.00,,,0.00,VWS V13.01,2013-02-15 09:39:00,
2013-02-15 03:44:00,43.5,31.4,30.16,WSW,248,2.7,4.0,62,0.00,,,0.00,VWS V13.01,2013-02-15 09:44:00,
2013-02-15 03:49:00,43.5,31.4,30.16,SW,223,3.1,3.1,62,0.00,,,0.00,VWS V13.01,2013-02-15 09:49:00,
2013-02-15 03:54:00,43.5,31.8,30.16,WSW,249,0.0,0.0,63,0.00,,,0.00,VWS V13.01,2013-02-15 09:54:00,
2013-02-15 03:59:00,43.3,31.2,30.16,WSW,256,0.0,0.0,62,0.00,,,0.00,VWS V13.01,2013-02-15 09:59:00,
2013-02-15 04:04:00,43.1,31.0,30.16,West,259,0.0,0.0,62,0.00,,,0.00,VWS V13.01,2013-02-15 10:04:00,
2013-02-15 04:09:00,43.0,31.2,30.16,SW,218,3.6,3.6,63,0.00,,,0.00,VWS V13.01,2013-02-15 10:09:00,
2013-02-15 04:14:00,42.8,30.7,30.16,WSW,244,2.2,3.1,62,0.00,,,0.00,VWS V13.01,2013-02-15 10:14:00,
2013-02-15 04:19:00,42.6,30.5,30.16,West,275,2.2,3.1,62,0.00,,,0.00,VWS V13.01,2013-02-15 10:19:00,
2013-02-15 04:24:00,42.2,29.8,30.16,West,261,4.0,4.0,61,0.00,,,0.00,VWS V13.01,2013-02-15 10:24:00,
2013-02-15 04:29:00,42.6,29.7,30.16,WSW,251,4.0,4.0,60,0.00,,,0.00,VWS V13.01,2013-02-15 10:29:00,
2013-02-15 04:34:00,42.6,28.9,30.16,WSW,256,3.1,4.0,58,0.00,,,0.00,VWS V13.01,2013-02-15 10:34:00,
2013-02-15 04:39:00,42.6,29.3,30.16,West,264,2.7,3.1,59,0.00,,,0.00,VWS V13.01,2013-02-15 10:39:00,
2013-02-15 04:44:00,42.4,29.1,30.16,WSW,252,2.7,3.1,59,0.00,,,0.00,VWS V13.01,2013-02-15 10:44:00,
2013-02-15 04:49:00,42.4,28.7,30.16,West,262,2.2,3.6,58,0.00,,,0.00,VWS V13.01,2013-02-15 10:49:00,
2013-02-15 04:54:00,42.4,28.7,30.16,SW,235,3.6,4.0,58,0.00,,,0.00,VWS V13.01,2013-02-15 10:54:00,
2013-02-15 04:59:00,42.2,28.5,30.16,WSW,242,3.6,3.6,58,0.00,,,0.00,VWS V13.01,2013-02-15 10:59:00,
2013-02-15 05:04:00,42.1,28.4,30.16,WSW,246,4.0,4.0,58,0.00,,,0.00,VWS V13.01,2013-02-15 11:04:00,
2013-02-15 05:09:00,42.1,28.4,30.16,West,260,3.6,3.6,58,0.00,,,0.00,VWS V13.01,2013-02-15 11:09:00,
2013-02-15 05:14:00,42.1,27.9,30.19,West,267,2.2,2.2,57,0.00,,,0.00,VWS V13.01,2013-02-15 11:14:00,
2013-02-15 05:19:00,42.1,27.5,30.19,West,265,0.0,0.0,56,0.00,,,0.00,VWS V13.01,2013-02-15 11:19:00,
2013-02-15 05:24:00,42.1,27.5,30.19,WNW,285,0.0,0.0,56,0.00,,,0.00,VWS V13.01,2013-02-15 11:24:00,
2013-02-15 05:29:00,41.7,26.7,30.16,West,267,0.0,0.0,55,0.00,,,0.00,VWS V13.01,2013-02-15 11:29:00,
2013-02-15 05:34:00,41.3,26.8,30.16,West,267,0.0,0.0,56,0.00,,,0.00,VWS V13.01,2013-02-15 11:34:00,
2013-02-15 05:39:00,41.2,26.7,30.16,West,281,2.2,2.7,56,0.00,,,0.00,VWS V13.01,2013-02-15 11:39:00,
2013-02-15 05:44:00,41.0,26.9,30.19,WSW,256,2.2,2.2,57,0.00,,,0.00,VWS V13.01,2013-02-15 11:44:00,
2013-02-15 05:49:00,40.6,26.2,30.19,West,274,0.0,0.0,56,0.00,,,0.00,VWS V13.01,2013-02-15 11:49:00,
2013-02-15 05:54:00,41.0,26.1,30.19,WNW,303,4.5,4.5,55,0.00,,,0.00,VWS V13.01,2013-02-15 11:54:00,
2013-02-15 05:59:00,40.6,26.2,30.19,NW,310,4.0,4.0,56,0.00,,,0.00,VWS V13.01,2013-02-15 11:59:00,
2013-02-15 06:04:00,40.8,25.9,30.19,West,279,5.4,5.4,55,0.00,,,0.00,VWS V13.01,2013-02-15 12:04:00,
2013-02-15 06:09:00,41.3,26.0,30.19,WNW,284,5.8,5.8,54,0.00,,,0.00,VWS V13.01,2013-02-15 12:09:00,
2013-02-15 06:14:00,41.5,25.7,30.19,NW,321,4.0,6.3,53,0.00,,,0.00,VWS V13.01,2013-02-15 12:14:00,
2013-02-15 06:19:00,41.3,26.0,30.19,NW,310,6.3,6.3,54,0.00,,,0.00,VWS V13.01,2013-02-15 12:19:00,
2013-02-15 06:24:00,41.0,25.6,30.19,NW,318,4.9,5.8,54,0.00,,,0.00,VWS V13.01,2013-02-15 12:24:00,
2013-02-15 06:29:00,40.8,25.9,30.19,NW,315,5.4,7.6,55,0.00,,,0.00,VWS V13.01,2013-02-15 12:29:00,
2013-02-15 06:34:00,40.4,25.6,30.19,NW,318,3.1,3.1,55,0.00,,,0.00,VWS V13.01,2013-02-15 12:34:00,
2013-02-15 06:39:00,40.3,25.8,30.19,WNW,302,5.4,5.4,56,0.00,,,0.00,VWS V13.01,2013-02-15 12:39:00,
2013-02-15 06:44:00,40.3,25.8,30.22,WNW,291,3.1,3.6,56,0.00,,,0.00,VWS V13.01,2013-02-15 12:44:00,
2013-02-15 06:49:00,39.9,25.5,30.22,WSW,257,2.7,3.1,56,0.00,,,0.00,VWS V13.01,2013-02-15 12:49:00,
2013-02-15 06:54:00,39.5,26.0,30.22,WSW,243,3.1,3.1,58,0.00,,,0.00,VWS V13.01,2013-02-15 12:54:00,
2013-02-15 06:59:00,38.8,25.3,30.22,West,266,4.0,4.0,58,0.00,,,0.00,VWS V13.01,2013-02-15 12:59:00,
2013-02-15 07:04:00,38.8,24.9,30.22,NW,316,5.8,5.8,57,0.00,,,0.00,VWS V13.01,2013-02-15 13:04:00,
2013-02-15 07:09:00,38.8,25.3,30.22,West,269,7.6,7.6,58,0.00,,,0.00,VWS V13.01,2013-02-15 13:09:00,
2013-02-15 07:14:00,38.6,24.7,30.22,WSW,253,3.1,3.1,57,0.00,,,0.00,VWS V13.01,2013-02-15 13:14:00,
2013-02-15 07:19:00,38.6,25.1,30.22,WSW,254,3.6,3.6,58,0.00,,,0.00,VWS V13.01,2013-02-15 13:19:00,
2013-02-15 07:24:00,38.5,25.0,30.22,WSW,253,2.7,2.7,58,0.00,,,0.00,VWS V13.01,2013-02-15 13:24:00,
2013-02-15 07:29:00,38.5,25.0,30.22,West,277,3.1,3.1,58,0.00,,,0.00,VWS V13.01,2013-02-15 13:29:00,
2013-02-15 07:34:00,38.5,24.6,30.22,WNW,294,4.0,4.0,57,0.00,,,0.00,VWS V13.01,2013-02-15 13:34:00,
2013-02-15 07:39:00,39.0,24.6,30.22,WNW,297,4.0,4.0,56,0.00,,,0.00,VWS V13.01,2013-02-15 13:39:00,
2013-02-15 07:44:00,39.2,24.8,30.22,NW,312,0.0,0.0,56,0.00,,,0.00,VWS V13.01,2013-02-15 13:44:00,
2013-02-15 07:49:00,39.2,24.8,30.22,WSW,248,2.7,2.7,56,0.00,,,0.00,VWS V13.01,2013-02-15 13:49:00,
2013-02-15 07:54:00,39.4,25.0,30.22,West,259,0.0,0.0,56,0.00,,,0.00,VWS V13.01,2013-02-15 13:54:00,
2013-02-15 07:59:00,39.2,24.8,30.25,WNW,290,9.6,9.6,56,0.00,,,0.00,VWS V13.01,2013-02-15 13:59:00,
2013-02-15 08:04:00,39.2,24.8,30.25,NW,323,2.2,4.9,56,0.00,,,0.00,VWS V13.01,2013-02-15 14:04:00,
2013-02-15 08:09:00,39.4,24.5,30.25,WNW,303,5.4,7.6,55,0.00,,,0.00,VWS V13.01,2013-02-15 14:09:00,
2013-02-15 08:14:00,39.5,24.7,30.25,NNE,18,3.1,4.9,55,0.00,,,0.00,VWS V13.01,2013-02-15 14:14:00,
2013-02-15 08:19:00,39.7,25.3,30.25,NNW,330,3.1,3.1,56,0.00,,,0.00,VWS V13.01,2013-02-15 14:19:00,
2013-02-15 08:24:00,39.7,25.8,30.25,NW,314,3.6,5.8,57,0.00,,,0.00,VWS V13.01,2013-02-15 14:24:00,
2013-02-15 08:29:00,39.7,24.9,30.25,NNW,331,3.6,5.4,55,0.00,,,0.00,VWS V13.01,2013-02-15 14:29:00,
2013-02-15 08:34:00,39.7,25.3,30.25,WNW,297,2.7,3.6,56,0.00,,,0.00,VWS V13.01,2013-02-15 14:34:00,
2013-02-15 08:38:00,39.9,24.6,30.25,NW,310,5.4,5.8,54,0.00,,,0.00,VWS V13.01,2013-02-15 14:38:00,
2013-02-15 08:43:00,40.1,24.8,30.25,NNW,338,6.3,6.3,54,0.00,,,0.00,VWS V13.01,2013-02-15 14:43:00,
2013-02-15 08:48:00,40.1,24.3,30.25,WNW,301,5.4,5.8,53,0.00,,,0.00,VWS V13.01,2013-02-15 14:48:00,
2013-02-15 08:53:00,39.9,24.2,30.25,WNW,300,8.1,8.1,53,0.00,,,0.00,VWS V13.01,2013-02-15 14:53:00,
2013-02-15 08:58:00,40.1,23.9,30.25,WNW,303,3.6,8.1,52,0.00,,,0.00,VWS V13.01,2013-02-15 14:58:00,
2013-02-15 09:03:00,40.3,24.5,30.25,WNW,298,6.3,7.2,53,0.00,,,0.00,VWS V13.01,2013-02-15 15:03:00,
2013-02-15 09:08:00,40.3,24.0,30.25,NW,320,5.8,5.8,52,0.00,,,0.00,VWS V13.01,2013-02-15 15:08:00,
2013-02-15 09:13:00,40.6,24.4,30.25,WNW,293,3.1,7.6,52,0.00,,,0.00,VWS V13.01,2013-02-15 15:13:00,
2013-02-15 09:18:00,39.9,23.7,30.28,NNW,327,6.7,8.3,52,0.00,,,0.00,VWS V13.01,2013-02-15 15:18:00,
2013-02-15 09:23:00,40.3,24.0,30.28,NW,312,4.9,7.6,52,0.00,,,0.00,VWS V13.01,2013-02-15 15:23:00,
2013-02-15 09:28:00,41.0,24.7,30.28,West,277,6.3,8.3,52,0.00,,,0.00,VWS V13.01,2013-02-15 15:28:00,
2013-02-15 09:33:00,41.0,24.3,30.28,NW,312,6.3,6.3,51,0.00,,,0.00,VWS V13.01,2013-02-15 15:33:00,
2013-02-15 09:38:00,40.8,24.1,30.28,NW,312,12.3,12.3,51,0.00,,,0.00,VWS V13.01,2013-02-15 15:38:00,
2013-02-15 09:43:00,40.8,24.1,30.28,NNW,345,5.8,8.1,51,0.00,,,0.00,VWS V13.01,2013-02-15 15:43:00,
2013-02-15 09:48:00,41.2,24.4,30.28,NW,306,11.0,11.0,51,0.00,,,0.00,VWS V13.01,2013-02-15 15:48:00,
2013-02-15 09:53:00,41.3,24.6,30.28,NW,317,7.6,7.6,51,0.00,,,0.00,VWS V13.01,2013-02-15 15:53:00,
2013-02-15 09:58:00,41.2,24.0,30.28,NW,318,8.1,10.5,50,0.00,,,0.00,VWS V13.01,2013-02-15 15:58:00,
2013-02-15 10:03:00,40.4,23.8,30.28,West,265,5.8,7.6,51,0.00,,,0.00,VWS V13.01,2013-02-15 16:03:00,
2013-02-15 10:08:00,40.8,24.5,30.28,WSW,250,7.2,7.2,52,0.00,,,0.00,VWS V13.01,2013-02-15 16:08:00,
2013-02-15 10:13:00,41.5,24.8,30.28,NW,323,5.4,6.7,51,0.00,,,0.00,VWS V13.01,2013-02-15 16:13:00,
2013-02-15 10:18:00,41.7,24.9,30.28,NW,324,8.3,8.3,51,0.00,,,0.00,VWS V13.01,2013-02-15 16:18:00,
2013-02-15 10:23:00,41.2,24.4,30.28,West,280,8.1,8.1,51,0.00,,,0.00,VWS V13.01,2013-02-15 16:23:00,
2013-02-15 10:28:00,41.5,24.8,30.28,West,270,7.6,8.3,51,0.00,,,0.00,VWS V13.01,2013-02-15 16:28:00,
2013-02-15 10:33:00,41.9,25.1,30.28,NNW,332,5.8,5.8,51,0.00,,,0.00,VWS V13.01,2013-02-15 16:33:00,
2013-02-15 10:38:00,41.3,24.1,30.28,WNW,301,8.7,8.7,50,0.00,,,0.00,VWS V13.01,2013-02-15 16:38:00,
2013-02-15 10:43:00,41.3,24.1,30.28,NNW,334,3.6,4.0,50,0.00,,,0.00,VWS V13.01,2013-02-15 16:43:00,
2013-02-15 10:48:00,40.8,24.1,30.28,WSW,246,7.2,7.2,51,0.00,,,0.00,VWS V13.01,2013-02-15 16:48:00,
2013-02-15 10:53:00,41.5,24.8,30.28,West,262,9.2,9.2,51,0.00,,,0.00,VWS V13.01,2013-02-15 16:53:00,
2013-02-15 10:58:00,41.3,24.6,30.28,West,268,6.3,8.1,51,0.00,,,0.00,VWS V13.01,2013-02-15 16:58:00,
2013-02-15 11:03:00,41.7,24.9,30.28,NW,324,5.8,5.8,51,0.00,,,0.00,VWS V13.01,2013-02-15 17:03:00,
2013-02-15 11:08:00,42.4,25.1,30.28,NW,309,10.5,12.3,50,0.00,,,0.00,VWS V13.01,2013-02-15 17:08:00,
2013-02-15 11:13:00,42.2,25.0,30.28,West,262,5.4,6.3,50,0.00,,,0.00,VWS V13.01,2013-02-15 17:13:00,
2013-02-15 11:18:00,41.7,24.5,30.28,WNW,291,5.4,5.8,50,0.00,,,0.00,VWS V13.01,2013-02-15 17:18:00,
2013-02-15 11:23:00,41.5,24.3,30.28,WSW,254,12.8,12.8,50,0.00,,,0.00,VWS V13.01,2013-02-15 17:23:00,
2013-02-15 11:28:00,41.5,24.3,30.28,WNW,284,8.3,10.5,50,0.00,,,0.00,VWS V13.01,2013-02-15 17:28:00,
2013-02-15 11:33:00,41.2,24.0,30.28,NW,309,8.7,10.5,50,0.00,,,0.00,VWS V13.01,2013-02-15 17:33:00,
2013-02-15 11:38:00,41.0,24.3,30.28,NNW,328,4.0,5.4,51,0.00,,,0.00,VWS V13.01,2013-02-15 17:38:00,
2013-02-15 11:43:00,41.2,24.4,30.28,WNW,296,4.9,7.6,51,0.00,,,0.00,VWS V13.01,2013-02-15 17:43:00,
2013-02-15 11:48:00,41.3,24.1,30.28,NW,309,8.3,8.3,50,0.00,,,0.00,VWS V13.01,2013-02-15 17:48:00,
2013-02-15 11:53:00,41.5,24.8,30.28,NNE,16,5.4,5.8,51,0.00,,,0.00,VWS V13.01,2013-02-15 17:53:00,
2013-02-15 11:58:00,41.7,24.5,30.28,West,281,5.4,5.4,50,0.00,,,0.00,VWS V13.01,2013-02-15 17:58:00,
2013-02-15 12:03:00,41.0,23.3,30.28,NW,311,10.1,10.1,49,0.00,,,0.00,VWS V13.01,2013-02-15 18:03:00,
2013-02-15 12:08:00,40.4,22.8,30.28,NW,324,6.3,8.7,49,0.00,,,0.00,VWS V13.01,2013-02-15 18:08:00,
2013-02-15 12:13:00,41.3,24.1,30.28,WNW,283,5.4,5.4,50,0.00,,,0.00,VWS V13.01,2013-02-15 18:13:00,
2013-02-15 12:18:00,41.9,24.1,30.28,NW,321,4.9,5.8,49,0.00,,,0.00,VWS V13.01,2013-02-15 18:18:00,
2013-02-15 12:23:00,41.7,24.0,30.28,West,260,10.1,10.1,49,0.00,,,0.00,VWS V13.01,2013-02-15 18:23:00,
2013-02-15 12:28:00,41.3,23.6,30.28,West,269,8.1,10.5,49,0.00,,,0.00,VWS V13.01,2013-02-15 18:28:00,
2013-02-15 12:33:00,41.7,24.5,30.28,NW,304,7.6,8.3,50,0.00,,,0.00,VWS V13.01,2013-02-15 18:33:00,
2013-02-15 12:38:00,41.5,23.8,30.28,WSW,258,6.3,6.7,49,0.00,,,0.00,VWS V13.01,2013-02-15 18:38:00,
2013-02-15 12:43:00,41.5,24.3,30.28,West,267,8.1,8.1,50,0.00,,,0.00,VWS V13.01,2013-02-15 18:43:00,
2013-02-15 12:48:00,41.2,23.5,30.28,NW,317,5.4,5.8,49,0.00,,,0.00,VWS V13.01,2013-02-15 18:48:00,
2013-02-15 12:53:00,42.8,25.0,30.28,West,259,10.5,10.5,49,0.00,,,0.00,VWS V13.01,2013-02-15 18:53:00,
2013-02-15 12:58:00,41.7,24.0,30.25,West,275,6.3,9.6,49,0.00,,,0.00,VWS V13.01,2013-02-15 18:58:00,
2013-02-15 13:03:00,42.1,24.3,30.25,West,270,8.3,8.3,49,0.00,,,0.00,VWS V13.01,2013-02-15 19:03:00,
2013-02-15 13:08:00,42.1,24.3,30.25,West,260,5.4,5.4,49,0.00,,,0.00,VWS V13.01,2013-02-15 19:08:00,
2013-02-15 13:13:00,41.9,24.1,30.25,NW,304,8.3,8.3,49,0.00,,,0.00,VWS V13.01,2013-02-15 19:13:00,
2013-02-15 13:18:00,42.1,24.3,30.25,NW,314,5.8,5.8,49,0.00,,,0.00,VWS V13.01,2013-02-15 19:18:00,
2013-02-15 13:23:00,42.6,24.3,30.25,NW,314,5.8,8.1,48,0.00,,,0.00,VWS V13.01,2013-02-15 19:23:00,
2013-02-15 13:28:00,42.2,24.5,30.25,NW,318,5.8,5.8,49,0.00,,,0.00,VWS V13.01,2013-02-15 19:28:00,
2013-02-15 13:33:00,43.1,24.8,30.25,NW,307,9.2,9.2,48,0.00,,,0.00,VWS V13.01,2013-02-15 19:33:00,
2013-02-15 13:38:00,43.0,24.6,30.25,WSW,246,7.6,7.6,48,0.00,,,0.00,VWS V13.01,2013-02-15 19:38:00,
2013-02-15 13:43:00,42.8,24.5,30.25,West,264,8.1,10.1,48,0.00,,,0.00,VWS V13.01,2013-02-15 19:43:00,
2013-02-15 13:48:00,42.2,24.5,30.25,WSW,247,5.8,5.8,49,0.00,,,0.00,VWS V13.01,2013-02-15 19:48:00,
2013-02-15 13:53:00,42.8,24.5,30.25,NW,321,5.4,5.4,48,0.00,,,0.00,VWS V13.01,2013-02-15 19:53:00,
2013-02-15 13:58:00,43.1,24.8,30.25,NNW,329,6.3,8.1,48,0.00,,,0.00,VWS V13.01,2013-02-15 19:58:00,
2013-02-15 14:03:00,43.3,25.0,30.25,WNW,288,4.0,4.0,48,0.00,,,0.00,VWS V13.01,2013-02-15 20:03:00,
2013-02-15 14:08:00,43.3,25.0,30.25,West,259,5.4,8.1,48,0.00,,,0.00,VWS V13.01,2013-02-15 20:08:00,
2013-02-15 14:13:00,43.1,24.8,30.25,WSW,241,3.6,4.0,48,0.00,,,0.00,VWS V13.01,2013-02-15 20:13:00,
2013-02-15 14:18:00,43.7,25.3,30.25,WSW,250,5.4,6.3,48,0.00,,,0.00,VWS V13.01,2013-02-15 20:18:00,
2013-02-15 14:23:00,43.7,24.8,30.25,NW,308,8.7,10.1,47,0.00,,,0.00,VWS V13.01,2013-02-15 20:23:00,
2013-02-15 14:28:00,43.5,24.6,30.25,WNW,288,7.6,7.6,47,0.00,,,0.00,VWS V13.01,2013-02-15 20:28:00,
2013-02-15 14:33:00,44.2,25.3,30.25,NW,308,10.5,10.5,47,0.00,,,0.00,VWS V13.01,2013-02-15 20:33:00,
2013-02-15 14:38:00,43.9,25.0,30.25,WSW,242,5.8,5.8,47,0.00,,,0.00,VWS V13.01,2013-02-15 20:38:00,
2013-02-15 14:43:00,44.0,24.1,30.25,West,259,6.3,6.3,45,0.00,,,0.00,VWS V13.01,2013-02-15 20:43:00,
2013-02-15 14:48:00,44.0,24.1,30.25,West,259,6.3,11.0,45,0.00,,,0.00,VWS V13.01,2013-02-15 20:48:00,
2013-02-15 14:53:00,44.0,24.1,30.25,WNW,300,5.4,8.1,45,0.00,,,0.00,VWS V13.01,2013-02-15 20:53:00,
2013-02-15 14:58:00,44.2,24.2,30.25,West,273,4.9,5.4,45,0.00,,,0.00,VWS V13.01,2013-02-15 20:58:00,
2013-02-15 15:03:00,44.8,25.8,30.25,WNW,302,5.8,5.8,47,0.00,,,0.00,VWS V13.01,2013-02-15 21:03:00,
2013-02-15 15:08:00,44.6,24.0,30.25,West,278,5.4,8.1,44,0.00,,,0.00,VWS V13.01,2013-02-15 21:08:00,
2013-02-15 15:13:00,43.9,23.9,30.25,NW,307,5.4,10.5,45,0.00,,,0.00,VWS V13.01,2013-02-15 21:13:00,
2013-02-15 15:18:00,44.4,23.9,30.25,WSW,254,8.3,11.0,44,0.00,,,0.00,VWS V13.01,2013-02-15 21:18:00,
2013-02-15 15:23:00,44.9,24.4,30.25,NW,318,5.4,6.3,44,0.00,,,0.00,VWS V13.01,2013-02-15 21:23:00,
2013-02-15 15:28:00,44.6,24.0,30.25,WSW,247,4.0,8.1,44,0.00,,,0.00,VWS V13.01,2013-02-15 21:28:00,
2013-02-15 15:33:00,44.6,24.0,30.25,WSW,254,4.9,8.3,44,0.00,,,0.00,VWS V13.01,2013-02-15 21:33:00,
2013-02-15 15:38:00,44.4,23.9,30.25,NNW,328,3.1,5.8,44,0.00,,,0.00,VWS V13.01,2013-02-15 21:38:00,
2013-02-15 15:42:00,44.0,24.1,30.25,WNW,303,4.9,7.6,45,0.00,,,0.00,VWS V13.01,2013-02-15 21:42:00,
2013-02-15 15:47:00,44.0,24.1,30.25,West,262,7.6,9.6,45,0.00,,,0.00,VWS V13.01,2013-02-15 21:47:00,
2013-02-15 15:52:00,44.0,22.4,30.25,WNW,299,8.3,11.0,42,0.00,,,0.00,VWS V13.01,2013-02-15 21:52:00,
2013-02-15 15:57:00,43.9,22.3,30.25,North,349,4.0,5.4,42,0.00,,,0.00,VWS V13.01,2013-02-15 21:57:00,
2013-02-15 16:02:00,43.5,23.6,30.25,WNW,282,4.9,8.7,45,0.00,,,0.00,VWS V13.01,2013-02-15 22:02:00,
2013-02-15 16:07:00,43.9,22.3,30.25,NW,307,10.1,10.1,42,0.00,,,0.00,VWS V13.01,2013-02-15 22:07:00,
2013-02-15 16:12:00,43.5,23.6,30.25,NNW,328,5.4,8.7,45,0.00,,,0.00,VWS V13.01,2013-02-15 22:12:00,
2013-02-15 16:17:00,43.5,23.6,30.25,NW,316,5.4,8.3,45,0.00,,,0.00,VWS V13.01,2013-02-15 22:17:00,
2013-02-15 16:22:00,43.7,23.8,30.25,NNW,328,5.8,6.3,45,0.00,,,0.00,VWS V13.01,2013-02-15 22:22:00,
2013-02-15 16:27:00,43.7,22.1,30.25,NW,314,5.8,5.8,42,0.00,,,0.00,VWS V13.01,2013-02-15 22:27:00,
2013-02-15 16:32:00,43.5,23.6,30.28,NNW,341,8.1,8.1,45,0.00,,,0.00,VWS V13.01,2013-02-15 22:32:00,
2013-02-15 16:37:00,43.1,23.3,30.28,NNW,330,4.9,6.3,45,0.00,,,0.00,VWS V13.01,2013-02-15 22:37:00,
2013-02-15 16:42:00,43.3,23.4,30.28,WNW,301,5.4,6.3,45,0.00,,,0.00,VWS V13.01,2013-02-15 22:42:00,
2013-02-15 16:47:00,43.3,23.4,30.28,NW,321,7.6,8.3,45,0.00,,,0.00,VWS V13.01,2013-02-15 22:47:00,
2013-02-15 16:52:00,43.3,23.4,30.28,NW,316,4.9,4.9,45,0.00,,,0.00,VWS V13.01,2013-02-15 22:52:00,
2013-02-15 16:57:00,43.3,23.4,30.28,WSW,237,5.4,6.3,45,0.00,,,0.00,VWS V13.01,2013-02-15 22:57:00,
2013-02-15 17:03:00,43.5,23.6,30.28,West,272,4.9,7.6,45,0.00,,,0.00,VWS V13.01,2013-02-15 23:03:00,
2013-02-15 17:08:00,43.1,23.3,30.28,NNW,328,6.3,8.1,45,0.00,,,0.00,VWS V13.01,2013-02-15 23:08:00,
2013-02-15 17:13:00,43.5,23.6,30.28,West,278,4.0,5.4,45,0.00,,,0.00,VWS V13.01,2013-02-15 23:13:00,
2013-02-15 17:18:00,43.1,21.6,30.28,West,273,8.1,8.1,42,0.00,,,0.00,VWS V13.01,2013-02-15 23:18:00,
2013-02-15 17:23:00,42.8,22.9,30.28,NNW,343,4.0,5.4,45,0.00,,,0.00,VWS V13.01,2013-02-15 23:23:00,
2013-02-15 17:28:00,42.4,21.5,30.28,WNW,291,5.4,5.8,43,0.00,,,0.00,VWS V13.01,2013-02-15 23:28:00,
2013-02-15 17:33:00,42.2,21.4,30.28,West,263,6.7,6.7,43,0.00,,,0.00,VWS V13.01,2013-02-15 23:33:00,
2013-02-15 17:38:00,41.7,21.9,30.28,NW,313,3.6,8.3,45,0.00,,,0.00,VWS V13.01,2013-02-15 23:38:00,
2013-02-15 17:42:00,41.5,20.7,30.28,West,271,3.6,3.6,43,0.00,,,0.00,VWS V13.01,2013-02-15 23:42:00,
2013-02-15 17:47:00,41.3,20.5,30.28,WNW,300,5.8,6.3,43,0.00,,,0.00,VWS V13.01,2013-02-15 23:47:00,
2013-02-15 17:52:00,41.2,21.5,30.28,WSW,248,2.7,3.6,45,0.00,,,0.00,VWS V13.01,2013-02-15 23:52:00,
2013-02-15 17:57:00,40.8,21.1,30.28,WNW,300,3.1,6.3,45,0.00,,,0.00,VWS V13.01,2013-02-15 23:57:00,
2013-02-15 18:02:00,40.4,21.3,30.28,WNW,302,3.6,4.0,46,0.00,,,0.00,VWS V13.01,2013-02-16 00:02:00,
2013-02-15 18:07:00,40.1,21.0,30.28,NW,315,3.6,4.9,46,0.00,,,0.00,VWS V13.01,2013-02-16 00:07:00,
2013-02-15 18:12:00,39.5,18.9,30.28,NW,317,5.8,7.2,43,0.00,,,0.00,VWS V13.01,2013-02-16 00:12:00,
2013-02-15 18:17:00,39.4,18.7,30.28,NW,313,5.4,5.8,43,0.00,,,0.00,VWS V13.01,2013-02-16 00:17:00,
2013-02-15 18:22:00,39.2,18.6,30.28,WNW,303,6.7,6.7,43,0.00,,,0.00,VWS V13.01,2013-02-16 00:22:00,
2013-02-15 18:27:00,39.2,18.6,30.28,NW,310,4.0,6.3,43,0.00,,,0.00,VWS V13.01,2013-02-16 00:27:00,
2013-02-15 18:32:00,39.0,18.4,30.28,NW,305,3.6,3.6,43,0.00,,,0.00,VWS V13.01,2013-02-16 00:32:00,
2013-02-15 18:37:00,38.6,18.1,30.28,NW,319,2.7,6.3,43,0.00,,,0.00,VWS V13.01,2013-02-16 00:37:00,
2013-02-15 18:42:00,38.5,17.9,30.28,NNW,332,3.1,4.0,43,0.00,,,0.00,VWS V13.01,2013-02-16 00:42:00,
2013-02-15 18:47:00,38.3,17.8,30.28,NNW,331,3.1,3.1,43,0.00,,,0.00,VWS V13.01,2013-02-16 00:47:00,
2013-02-15 18:52:00,37.9,17.4,30.28,NW,304,2.7,3.1,43,0.00,,,0.00,VWS V13.01,2013-02-16 00:52:00,
2013-02-15 18:57:00,37.9,17.4,30.28,WNW,294,2.2,3.1,43,0.00,,,0.00,VWS V13.01,2013-02-16 00:57:00,
2013-02-15 19:02:00,37.4,16.9,30.28,West,265,0.0,2.2,43,0.00,,,0.00,VWS V13.01,2013-02-16 01:02:00,
2013-02-15 19:07:00,37.2,16.8,30.28,WNW,298,0.0,2.2,43,0.00,,,0.00,VWS V13.01,2013-02-16 01:07:00,
2013-02-15 19:12:00,37.2,16.8,30.28,WNW,298,3.6,3.6,43,0.00,,,0.00,VWS V13.01,2013-02-16 01:12:00,
2013-02-15 19:17:00,37.2,16.8,30.28,WNW,301,0.0,2.2,43,0.00,,,0.00,VWS V13.01,2013-02-16 01:17:00,
2013-02-15 19:22:00,36.8,17.0,30.28,West,281,0.0,0.0,44,0.00,,,0.00,VWS V13.01,2013-02-16 01:22:00,
2013-02-15 19:27:00,36.5,17.7,30.28,West,281,0.0,0.0,46,0.00,,,0.00,VWS V13.01,2013-02-16 01:27:00,
2013-02-15 19:32:00,36.3,17.5,30.28,West,277,0.0,0.0,46,0.00,,,0.00,VWS V13.01,2013-02-16 01:32:00,
2013-02-15 19:37:00,35.9,17.2,30.28,SW,224,0.0,0.0,46,0.00,,,0.00,VWS V13.01,2013-02-16 01:37:00,
2013-02-15 19:42:00,35.4,16.7,30.28,SW,216,0.0,0.0,46,0.00,,,0.00,VWS V13.01,2013-02-16 01:42:00,
2013-02-15 19:47:00,34.9,16.7,30.28,SW,216,0.0,0.0,47,0.00,,,0.00,VWS V13.01,2013-02-16 01:47:00,
2013-02-15 19:52:00,34.9,17.7,30.28,SW,219,0.0,0.0,49,0.00,,,0.00,VWS V13.01,2013-02-16 01:52:00,
2013-02-15 19:57:00,34.7,18.0,30.28,WNW,285,2.7,4.0,50,0.00,,,0.00,VWS V13.01,2013-02-16 01:57:00,
2013-02-15 20:02:00,34.9,18.1,30.28,West,264,3.1,3.1,50,0.00,,,0.00,VWS V13.01,2013-02-16 02:02:00,
2013-02-15 20:07:00,34.9,18.1,30.28,West,260,3.6,4.9,50,0.00,,,0.00,VWS V13.01,2013-02-16 02:07:00,
2013-02-15 20:12:00,35.0,18.3,30.28,West,280,5.4,6.3,50,0.00,,,0.00,VWS V13.01,2013-02-16 02:12:00,
2013-02-15 20:17:00,35.4,18.1,30.28,West,280,7.6,7.6,49,0.00,,,0.00,VWS V13.01,2013-02-16 02:17:00,
2013-02-15 20:22:00,35.6,18.3,30.28,West,267,4.0,7.2,49,0.00,,,0.00,VWS V13.01,2013-02-16 02:22:00,
2013-02-15 20:27:00,35.4,18.1,30.28,WNW,282,5.4,5.4,49,0.00,,,0.00,VWS V13.01,2013-02-16 02:27:00,
2013-02-15 20:32:00,35.4,18.1,30.31,WSW,252,5.4,5.4,49,0.00,,,0.00,VWS V13.01,2013-02-16 02:32:00,
2013-02-15 20:37:00,35.2,18.0,30.31,WNW,282,3.1,3.1,49,0.00,,,0.00,VWS V13.01,2013-02-16 02:37:00,
2013-02-15 20:42:00,34.9,17.7,30.31,West,269,4.9,4.9,49,0.00,,,0.00,VWS V13.01,2013-02-16 02:42:00,
2013-02-15 20:47:00,34.7,17.5,30.28,West,271,3.6,5.8,49,0.00,,,0.00,VWS V13.01,2013-02-16 02:47:00,
2013-02-15 20:52:00,34.3,17.2,30.28,West,271,2.7,3.6,49,0.00,,,0.00,VWS V13.01,2013-02-16 02:52:00,
2013-02-15 20:57:00,34.1,17.0,30.28,West,280,2.2,3.1,49,0.00,,,0.00,VWS V13.01,2013-02-16 02:57:00,
2013-02-15 21:02:00,34.1,17.0,30.31,West,264,4.5,4.9,49,0.00,,,0.00,VWS V13.01,2013-02-16 03:02:00,
2013-02-15 21:07:00,34.1,17.0,30.31,West,279,2.7,3.1,49,0.00,,,0.00,VWS V13.01,2013-02-16 03:07:00,
2013-02-15 21:12:00,34.0,16.8,30.31,WSW,258,2.7,4.9,49,0.00,,,0.00,VWS V13.01,2013-02-16 03:12:00,
2013-02-15 21:17:00,33.8,16.7,30.31,West,263,4.0,4.0,49,0.00,,,0.00,VWS V13.01,2013-02-16 03:17:00,
2013-02-15 21:22:00,33.8,16.7,30.31,WSW,256,3.1,3.1,49,0.00,,,0.00,VWS V13.01,2013-02-16 03:22:00,
2013-02-15 21:27:00,33.8,16.7,30.31,West,269,3.1,3.6,49,0.00,,,0.00,VWS V13.01,2013-02-16 03:27:00,
2013-02-15 21:32:00,33.8,16.7,30.31,West,268,4.0,4.0,49,0.00,,,0.00,VWS V13.01,2013-02-16 03:32:00,
2013-02-15 21:37:00,33.6,16.5,30.31,West,268,2.7,2.7,49,0.00,,,0.00,VWS V13.01,2013-02-16 03:37:00,
2013-02-15 21:42:00,33.2,16.6,30.31,West,271,2.7,2.7,50,0.00,,,0.00,VWS V13.01,2013-02-16 03:42:00,
2013-02-15 21:47:00,32.5,16.0,30.31,West,271,0.0,2.2,50,0.00,,,0.00,VWS V13.01,2013-02-16 03:47:00,
2013-02-15 21:52:00,32.2,15.6,30.31,West,271,0.0,2.2,50,0.00,,,0.00,VWS V13.01,2013-02-16 03:52:00,
2013-02-15 21:57:00,32.0,15.5,30.31,West,271,0.0,0.0,50,0.00,,,0.00,VWS V13.01,2013-02-16 03:57:00,
2013-02-15 22:02:00,32.0,15.5,30.31,West,276,0.0,0.0,50,0.00,,,0.00,VWS V13.01,2013-02-16 04:02:00,
2013-02-15 22:07:00,32.0,15.5,30.31,NW,309,4.0,4.0,50,0.00,,,0.00,VWS V13.01,2013-02-16 04:07:00,
2013-02-15 22:12:00,31.8,15.3,30.31,WNW,297,0.0,0.0,50,0.00,,,0.00,VWS V13.01,2013-02-16 04:12:00,
2013-02-15 22:17:00,31.4,15.4,30.31,West,259,0.0,2.2,51,0.00,,,0.00,VWS V13.01,2013-02-16 04:17:00,
2013-02-15 22:22:00,31.1,15.1,30.31,West,279,2.2,2.2,51,0.00,,,0.00,VWS V13.01,2013-02-16 04:22:00,
2013-02-15 22:27:00,30.7,14.8,30.31,WNW,286,0.0,0.0,51,0.00,,,0.00,VWS V13.01,2013-02-16 04:27:00,
2013-02-15 22:32:00,30.5,14.6,30.31,WSW,246,2.2,2.2,51,0.00,,,0.00,VWS V13.01,2013-02-16 04:32:00,
2013-02-15 22:37:00,30.2,15.1,30.31,WSW,246,2.2,2.2,53,0.00,,,0.00,VWS V13.01,2013-02-16 04:37:00,
2013-02-15 22:42:00,29.5,14.9,30.31,SW,224,2.7,2.7,54,0.00,,,0.00,VWS V13.01,2013-02-16 04:42:00,
2013-02-15 22:47:00,29.3,14.7,30.28,SW,220,0.0,0.0,54,0.00,,,0.00,VWS V13.01,2013-02-16 04:47:00,
2013-02-15 22:52:00,29.3,14.7,30.28,SW,220,0.0,0.0,54,0.00,,,0.00,VWS V13.01,2013-02-16 04:52:00,
2013-02-15 22:57:00,28.9,15.6,30.28,SSW,199,0.0,0.0,57,0.00,,,0.00,VWS V13.01,2013-02-16 04:57:00,
2013-02-15 23:00:00,28.7,16.2,30.28,SSW,192,0.0,0.0,59,0.00,,,0.00,VWS V13.01,2013-02-16 05:00:00,
2013-02-15 23:05:00,28.4,15.9,30.28,South,180,4.0,4.0,59,0.00,,,0.00,VWS V13.01,2013-02-16 05:05:00,
2013-02-15 23:10:00,28.2,16.1,30.28,South,175,2.7,2.7,60,0.00,,,0.00,VWS V13.01,2013-02-16 05:10:00,
2013-02-15 23:15:00,28.2,16.1,30.28,South,169,2.7,3.6,60,0.00,,,0.00,VWS V13.01,2013-02-16 05:15:00,
2013-02-15 23:20:00,28.0,15.9,30.28,SSE,165,4.0,4.0,60,0.00,,,0.00,VWS V13.01,2013-02-16 05:20:00,
2013-02-15 23:23:00,28.0,15.9,30.28,SE,143,0.0,0.0,60,0.00,,,0.00,VWS V13.01,2013-02-16 05:23:00,
2013-02-15 23:28:00,27.8,15.4,30.28,SSE,147,0.0,0.0,59,0.00,,,0.00,VWS V13.01,2013-02-16 05:28:00,
2013-02-15 23:33:00,27.8,15.4,30.28,SSE,160,2.7,3.1,59,0.00,,,0.00,VWS V13.01,2013-02-16 05:33:00,
2013-02-15 23:38:00,28.0,15.6,30.28,SSE,160,2.2,2.2,59,0.00,,,0.00,VWS V13.01,2013-02-16 05:38:00,
2013-02-15 23:43:00,28.0,15.9,30.28,SSE,160,0.0,0.0,60,0.00,,,0.00,VWS V13.01,2013-02-16 05:43:00,
2013-02-15 23:48:00,27.7,16.0,30.28,SSE,160,0.0,0.0,61,0.00,,,0.00,VWS V13.01,2013-02-16 05:48:00,
2013-02-15 23:53:00,27.3,14.9,30.28,SSE,160,0.0,0.0,59,0.00,,,0.00,VWS V13.01,2013-02-16 05:53:00,
2013-02-15 23:58:00,26.9,14.9,30.28,East,81,0.0,0.0,60,0.00,,,0.00,VWS V13.01,2013-02-16 05:58:00,